Time,TemperatureF,DewpointF,PressureIn,WindDirection,WindDirectionDegrees,WindSpeedMPH,WindSpeedGustMPH,Humidity,HourlyPrecipIn,Conditions,Clouds,dailyrainin,SoftwareType,DateUTC
2013-04-01 00:05:00,32.8,29.6,30.13,NNW,348,8.0,15.0,88,0.00,,,0.04,Wunderground v.1.15,2013-04-01 05:05:00,
2013-04-01 00:15:00,32.4,29.2,30.14,NNW,336,9.0,11.0,88,0.00,,,0.00,Wunderground v.1.15,2013-04-01 05:15:00,
2013-04-01 00:20:00,32.2,29.3,30.14,NNW,333,8.0,8.0,89,0.00,,,0.00,Wunderground v.1.15,2013-04-01 05:20:00,
2013-04-01 00:30:00,32.0,29.1,30.14,NNW,340,7.0,7.0,89,0.00,,,0.00,Wunderground v.1.15,2013-04-01 05:30:00,
2013-04-01 00:40:00,31.7,28.8,30.15,NW,311,8.0,8.0,89,0.00,,,0.00,Wunderground v.1.15,2013-04-01 05:40:00,
2013-04-01 00:45:00,31.6,28.7,30.15,North,360,7.0,8.0,89,0.00,,,0.00,Wunderground v.1.15,2013-04-01 05:45:00,
2013-04-01 00:50:00,31.5,28.6,30.15,NNE,21,7.0,9.0,89,0.00,,,0.00,Wunderground v.1.15,2013-04-01 05:50:00,
2013-04-01 00:55:00,31.4,28.5,30.15,North,355,7.0,12.0,89,0.00,,,0.00,Wunderground v.1.15,2013-04-01 05:55:00,
2013-04-01 01:05:00,31.0,28.1,30.16,NNW,342,7.0,8.0,89,0.00,,,0.00,Wunderground v.1.15,2013-04-01 06:05:00,
2013-04-01 01:15:00,30.6,27.5,30.17,NW,319,8.0,9.0,88,0.00,,,0.00,Wunderground v.1.15,2013-04-01 06:15:00,
2013-04-01 01:25:00,30.3,27.2,30.17,NNE,12,7.0,14.0,88,0.00,,,0.00,Wunderground v.1.15,2013-04-01 06:25:00,
2013-04-01 01:35:00,29.8,26.7,30.17,North,5,10.0,15.0,88,0.00,,,0.00,Wunderground v.1.15,2013-04-01 06:35:00,
2013-04-01 01:40:00,29.6,26.5,30.17,NNW,333,10.0,10.0,88,0.00,,,0.00,Wunderground v.1.15,2013-04-01 06:40:00,
2013-04-01 01:50:00,29.4,26.3,30.18,NNE,12,9.0,9.0,88,0.00,,,0.00,Wunderground v.1.15,2013-04-01 06:50:00,
2013-04-01 02:00:00,29.3,26.2,30.18,NNW,336,7.0,7.0,88,0.00,,,0.00,Wunderground v.1.15,2013-04-01 07:00:00,
2013-04-01 02:05:00,29.3,26.2,30.18,NNW,331,7.0,9.0,88,0.00,,,0.00,Wunderground v.1.15,2013-04-01 07:05:00,
2013-04-01 02:15:00,29.1,25.7,30.18,NW,308,7.0,10.0,87,0.00,,,0.00,Wunderground v.1.15,2013-04-01 07:15:00,
2013-04-01 02:20:00,28.9,25.5,30.18,NNE,12,9.0,9.0,87,0.00,,,0.00,Wunderground v.1.15,2013-04-01 07:20:00,
2013-04-01 02:30:00,28.5,24.8,30.18,North,360,8.0,8.0,86,0.00,,,0.00,Wunderground v.1.15,2013-04-01 07:30:00,
2013-04-01 02:40:00,28.2,24.6,30.18,North,355,8.0,8.0,86,0.00,,,0.00,Wunderground v.1.15,2013-04-01 07:40:00,
2013-04-01 02:45:00,28.0,24.1,30.18,North,350,7.0,9.0,85,0.00,,,0.00,Wunderground v.1.15,2013-04-01 07:45:00,
2013-04-01 02:55:00,27.8,23.6,30.18,North,360,7.0,8.0,84,0.00,,,0.00,Wunderground v.1.15,2013-04-01 07:55:00,
2013-04-01 03:05:00,27.6,23.4,30.19,North,5,9.0,15.0,84,0.00,,,0.00,Wunderground v.1.15,2013-04-01 08:05:00,
2013-04-01 03:15:00,27.5,23.0,30.19,North,360,8.0,9.0,83,0.00,,,0.00,Wunderground v.1.15,2013-04-01 08:15:00,
2013-04-01 03:25:00,27.3,22.8,30.19,NNW,335,8.0,11.0,83,0.00,,,0.00,Wunderground v.1.15,2013-04-01 08:25:00,
2013-04-01 03:35:00,27.0,22.2,30.20,NNW,332,8.0,12.0,82,0.00,,,0.00,Wunderground v.1.15,2013-04-01 08:35:00,
2013-04-01 03:45:00,26.8,22.0,30.20,North,360,7.0,7.0,82,0.00,,,0.00,Wunderground v.1.15,2013-04-01 08:45:00,
2013-04-01 03:50:00,26.7,21.9,30.20,NNW,335,7.0,9.0,82,0.00,,,0.00,Wunderground v.1.15,2013-04-01 08:50:00,
2013-04-01 04:00:00,26.4,21.4,30.20,NW,315,6.0,6.0,81,0.00,,,0.00,Wunderground v.1.15,2013-04-01 09:00:00,
2013-04-01 04:05:00,26.3,21.3,30.21,North,9,7.0,7.0,81,0.00,,,0.00,Wunderground v.1.15,2013-04-01 09:05:00,
2013-04-01 04:15:00,26.0,21.0,30.22,North,355,8.0,12.0,81,0.00,,,0.00,Wunderground v.1.15,2013-04-01 09:15:00,
2013-04-01 04:25:00,25.8,20.8,30.22,North,5,6.0,7.0,81,0.00,,,0.00,Wunderground v.1.15,2013-04-01 09:25:00,
2013-04-01 04:35:00,25.7,20.7,30.23,NNE,15,6.0,7.0,81,0.00,,,0.00,Wunderground v.1.15,2013-04-01 09:35:00,
2013-04-01 04:45:00,25.5,20.5,30.23,North,360,5.0,6.0,81,0.00,,,0.00,Wunderground v.1.15,2013-04-01 09:45:00,
2013-04-01 04:55:00,25.3,20.3,30.24,NNW,346,6.0,8.0,81,0.00,,,0.00,Wunderground v.1.15,2013-04-01 09:55:00,
2013-04-01 05:05:00,25.0,20.0,30.24,North,355,5.0,7.0,81,0.00,,,0.00,Wunderground v.1.15,2013-04-01 10:05:00,
2013-04-01 05:15:00,24.8,19.8,30.25,North,355,7.0,7.0,81,0.00,,,0.00,Wunderground v.1.15,2013-04-01 10:15:00,
2013-04-01 05:25:00,24.6,19.6,30.25,North,355,6.0,7.0,81,0.00,,,0.00,Wunderground v.1.15,2013-04-01 10:25:00,
2013-04-01 05:35:00,24.4,19.4,30.26,NNW,329,6.0,7.0,81,0.00,,,0.00,Wunderground v.1.15,2013-04-01 10:35:00,
2013-04-01 05:45:00,24.3,19.0,30.26,NW,312,4.0,6.0,80,0.00,,,0.00,Wunderground v.1.15,2013-04-01 10:45:00,
2013-04-01 05:55:00,24.1,19.1,30.26,NNW,327,5.0,8.0,81,0.00,,,0.00,Wunderground v.1.15,2013-04-01 10:55:00,
2013-04-01 06:00:00,24.0,19.0,30.26,North,5,5.0,10.0,81,0.00,,,0.00,Wunderground v.1.15,2013-04-01 11:00:00,
2013-04-01 06:05:00,23.9,18.9,30.27,NNW,333,6.0,10.0,81,0.00,,,0.00,Wunderground v.1.15,2013-04-01 11:05:00,
2013-04-01 06:15:00,23.7,18.7,30.27,NNW,344,5.0,8.0,81,0.00,,,0.00,Wunderground v.1.15,2013-04-01 11:15:00,
2013-04-01 06:25:00,23.5,18.5,30.28,North,5,6.0,6.0,81,0.00,,,0.00,Wunderground v.1.15,2013-04-01 11:25:00,
2013-04-01 06:35:00,23.3,18.3,30.28,NW,311,7.0,9.0,81,0.00,,,0.00,Wunderground v.1.15,2013-04-01 11:35:00,
2013-04-01 06:45:00,23.0,17.7,30.28,NNW,337,7.0,11.0,80,0.00,,,0.00,Wunderground v.1.15,2013-04-01 11:45:00,
2013-04-01 06:50:00,22.9,17.7,30.28,NNE,32,7.0,7.0,80,0.00,,,0.00,Wunderground v.1.15,2013-04-01 11:50:00,
2013-04-01 07:00:00,22.8,17.6,30.29,NW,323,9.0,9.0,80,0.00,,,0.00,Wunderground v.1.15,2013-04-01 12:00:00,
2013-04-01 07:05:00,22.7,17.2,30.28,NNW,335,8.0,11.0,79,0.00,,,0.00,Wunderground v.1.15,2013-04-01 12:05:00,
2013-04-01 07:15:00,22.6,17.1,30.30,NNW,332,6.0,8.0,79,0.00,,,0.00,Wunderground v.1.15,2013-04-01 12:15:00,
2013-04-01 07:25:00,22.6,17.1,30.29,NNE,15,7.0,7.0,79,0.00,,,0.00,Wunderground v.1.15,2013-04-01 12:25:00,
2013-04-01 07:35:00,22.7,17.5,30.30,NW,317,7.0,8.0,80,0.00,,,0.00,Wunderground v.1.15,2013-04-01 12:35:00,
2013-04-01 07:45:00,23.0,17.7,30.30,North,351,7.0,7.0,80,0.00,,,0.00,Wunderground v.1.15,2013-04-01 12:45:00,
2013-04-01 07:55:00,23.3,17.7,30.31,NNW,342,8.0,8.0,79,0.00,,,0.00,Wunderground v.1.15,2013-04-01 12:55:00,
2013-04-01 08:05:00,23.6,18.0,30.31,WNW,302,6.0,7.0,79,0.00,,,0.00,Wunderground v.1.15,2013-04-01 13:05:00,
2013-04-01 08:15:00,23.9,18.3,30.32,North,360,6.0,6.0,79,0.00,,,0.00,Wunderground v.1.15,2013-04-01 13:15:00,
2013-04-01 08:20:00,24.0,18.1,30.32,WNW,296,7.0,7.0,78,0.00,,,0.00,Wunderground v.1.15,2013-04-01 13:20:00,
2013-04-01 08:30:00,24.2,18.3,30.34,WNW,292,5.0,5.0,78,0.00,,,0.00,Wunderground v.1.15,2013-04-01 13:30:00,
2013-04-01 08:35:00,24.4,18.5,30.33,NW,306,5.0,5.0,78,0.00,,,0.00,Wunderground v.1.15,2013-04-01 13:35:00,
2013-04-01 08:45:00,24.7,18.8,30.34,NW,320,6.0,6.0,78,0.00,,,0.00,Wunderground v.1.15,2013-04-01 13:45:00,
2013-04-01 08:50:00,24.9,19.0,30.34,NW,306,5.0,5.0,78,0.00,,,0.00,Wunderground v.1.15,2013-04-01 13:50:00,
2013-04-01 08:55:00,25.1,19.2,30.34,West,280,5.0,5.0,78,0.00,,,0.00,Wunderground v.1.15,2013-04-01 13:55:00,
2013-04-01 09:05:00,25.6,19.4,30.34,WNW,291,6.0,6.0,77,0.00,,,0.00,Wunderground v.1.15,2013-04-01 14:05:00,
2013-04-01 09:10:00,25.9,19.7,30.34,NW,305,6.0,6.0,77,0.00,,,0.00,Wunderground v.1.15,2013-04-01 14:10:00,
2013-04-01 09:20:00,26.4,19.9,30.34,NNW,344,5.0,7.0,76,0.00,,,0.00,Wunderground v.1.15,2013-04-01 14:20:00,
2013-04-01 09:30:00,27.1,20.2,30.33,NNE,16,5.0,5.0,75,0.00,,,0.00,Wunderground v.1.15,2013-04-01 14:30:00,
2013-04-01 09:40:00,27.8,20.9,30.33,NW,319,6.0,8.0,75,0.00,,,0.00,Wunderground v.1.15,2013-04-01 14:40:00,
2013-04-01 09:50:00,28.1,20.9,30.34,NW,314,7.0,10.0,74,0.00,,,0.00,Wunderground v.1.15,2013-04-01 14:50:00,
2013-04-01 10:00:00,28.5,20.6,30.34,NW,311,9.0,11.0,72,0.00,,,0.01,Wunderground v.1.15,2013-04-01 15:00:00,
2013-04-01 10:05:00,28.5,20.6,30.34,North,5,9.0,11.0,72,0.00,,,0.01,Wunderground v.1.15,2013-04-01 15:05:00,
2013-04-01 10:15:00,29.6,22.0,30.34,NNE,16,7.0,12.0,73,0.00,,,0.01,Wunderground v.1.15,2013-04-01 15:15:00,
2013-04-01 10:25:00,29.9,21.6,30.34,NNE,25,9.0,13.0,71,0.00,,,0.01,Wunderground v.1.15,2013-04-01 15:25:00,
2013-04-01 10:35:00,30.9,22.3,30.33,North,360,8.0,9.0,70,0.00,,,0.01,Wunderground v.1.15,2013-04-01 15:35:00,
2013-04-01 10:45:00,31.6,22.9,30.34,North,5,9.0,13.0,70,0.00,,,0.01,Wunderground v.1.15,2013-04-01 15:45:00,
2013-04-01 10:55:00,32.2,22.1,30.34,North,360,8.0,12.0,66,0.00,,,0.01,Wunderground v.1.15,2013-04-01 15:55:00,
2013-04-01 11:05:00,32.5,21.3,30.34,North,360,11.0,12.0,63,0.00,,,0.01,Wunderground v.1.15,2013-04-01 16:05:00,
2013-04-01 11:15:00,33.0,22.1,30.33,NNW,346,10.0,12.0,64,0.00,,,0.01,Wunderground v.1.15,2013-04-01 16:15:00,
2013-04-01 11:25:00,32.8,21.2,30.34,NW,309,12.0,12.0,62,0.00,,,0.01,Wunderground v.1.15,2013-04-01 16:25:00,
2013-04-01 11:35:00,33.5,20.7,30.34,NNE,13,9.0,11.0,59,0.00,,,0.01,Wunderground v.1.15,2013-04-01 16:35:00,
2013-04-01 11:45:00,33.9,20.3,30.34,North,360,11.0,11.0,57,0.00,,,0.01,Wunderground v.1.15,2013-04-01 16:45:00,
2013-04-01 11:55:00,34.0,19.9,30.34,NNE,15,12.0,12.0,56,0.00,,,0.01,Wunderground v.1.15,2013-04-01 16:55:00,
2013-04-01 12:05:00,34.4,21.9,30.34,North,355,11.0,15.0,60,0.00,,,0.01,Wunderground v.1.15,2013-04-01 17:05:00,
2013-04-01 12:15:00,35.5,21.3,30.34,NNE,19,9.0,10.0,56,0.00,,,0.01,Wunderground v.1.15,2013-04-01 17:15:00,
2013-04-01 12:25:00,35.1,20.1,30.34,NW,307,12.0,12.0,54,0.00,,,0.01,Wunderground v.1.15,2013-04-01 17:25:00,
2013-04-01 12:35:00,34.8,20.7,30.35,NW,323,11.0,13.0,56,0.00,,,0.01,Wunderground v.1.15,2013-04-01 17:35:00,
2013-04-01 12:45:00,37.4,24.0,30.35,West,277,6.0,9.0,58,0.00,,,0.01,Wunderground v.1.15,2013-04-01 17:45:00,
2013-04-01 12:55:00,37.6,22.9,30.34,NE,36,8.0,12.0,55,0.00,,,0.01,Wunderground v.1.15,2013-04-01 17:55:00,
2013-04-01 13:05:00,36.4,20.4,30.34,NE,36,11.0,11.0,52,0.00,,,0.01,Wunderground v.1.15,2013-04-01 18:05:00,
2013-04-01 13:15:00,36.8,21.3,30.34,NNW,344,9.0,13.0,53,0.00,,,0.01,Wunderground v.1.15,2013-04-01 18:15:00,
2013-04-01 13:20:00,38.0,23.3,30.34,NW,315,8.0,8.0,55,0.00,,,0.01,Wunderground v.1.15,2013-04-01 18:20:00,
2013-04-01 13:30:00,38.5,21.5,30.34,NNE,17,8.0,8.0,50,0.00,,,0.01,Wunderground v.1.15,2013-04-01 18:30:00,
2013-04-01 13:40:00,38.8,21.3,30.33,NNW,346,8.0,8.0,49,0.00,,,0.01,Wunderground v.1.15,2013-04-01 18:40:00,
2013-04-01 13:50:00,39.1,22.0,30.33,NW,306,7.0,7.0,50,0.00,,,0.01,Wunderground v.1.15,2013-04-01 18:50:00,
2013-04-01 14:00:00,40.0,21.9,30.33,NW,316,7.0,7.0,48,0.00,,,0.01,Wunderground v.1.15,2013-04-01 19:00:00,
2013-04-01 14:05:00,40.0,20.9,30.33,NNW,344,7.0,8.0,46,0.00,,,0.01,Wunderground v.1.15,2013-04-01 19:05:00,
2013-04-01 14:10:00,39.5,21.4,30.33,North,355,7.0,9.0,48,0.00,,,0.01,Wunderground v.1.15,2013-04-01 19:10:00,
2013-04-01 14:20:00,40.1,21.0,30.33,WNW,302,6.0,6.0,46,0.00,,,0.01,Wunderground v.1.15,2013-04-01 19:20:00,
2013-04-01 14:30:00,39.9,22.3,30.32,NW,311,7.0,7.0,49,0.00,,,0.01,Wunderground v.1.15,2013-04-01 19:30:00,
2013-04-01 14:40:00,40.0,20.9,30.33,NNW,346,8.0,8.0,46,0.00,,,0.01,Wunderground v.1.15,2013-04-01 19:40:00,
2013-04-01 14:45:00,39.7,20.1,30.32,NNW,339,7.0,8.0,45,0.00,,,0.01,Wunderground v.1.15,2013-04-01 19:45:00,
2013-04-01 14:55:00,40.9,20.6,30.32,North,9,6.0,8.0,44,0.00,,,0.01,Wunderground v.1.15,2013-04-01 19:55:00,
2013-04-01 15:05:00,40.8,21.1,30.32,NNW,338,7.0,7.0,45,0.00,,,0.01,Wunderground v.1.15,2013-04-01 20:05:00,
2013-04-01 15:15:00,40.6,20.4,30.31,NE,42,8.0,12.0,44,0.00,,,0.01,Wunderground v.1.15,2013-04-01 20:15:00,
2013-04-01 15:20:00,41.1,20.3,30.32,NE,44,6.0,6.0,43,0.00,,,0.01,Wunderground v.1.15,2013-04-01 20:20:00,
2013-04-01 15:25:00,40.8,18.9,30.31,NE,44,6.0,13.0,41,0.00,,,0.01,Wunderground v.1.15,2013-04-01 20:25:00,
2013-04-01 15:35:00,41.4,20.5,30.31,North,9,7.0,7.0,43,0.00,,,0.01,Wunderground v.1.15,2013-04-01 20:35:00,
2013-04-01 15:45:00,42.4,21.5,30.31,WNW,300,4.0,5.0,43,0.00,,,0.01,Wunderground v.1.15,2013-04-01 20:45:00,
2013-04-01 15:55:00,41.3,19.3,30.31,North,355,4.0,4.0,41,0.00,,,0.01,Wunderground v.1.15,2013-04-01 20:55:00,
2013-04-01 16:05:00,41.5,19.5,30.31,NW,321,5.0,5.0,41,0.00,,,0.01,Wunderground v.1.15,2013-04-01 21:05:00,
2013-04-01 16:15:00,42.1,18.9,30.30,NNW,347,6.0,6.0,39,0.00,,,0.01,Wunderground v.1.15,2013-04-01 21:15:00,
2013-04-01 16:20:00,42.2,20.7,30.30,NW,309,5.0,5.0,42,0.00,,,0.01,Wunderground v.1.15,2013-04-01 21:20:00,
2013-04-01 16:30:00,42.5,19.3,30.30,NNE,32,5.0,5.0,39,0.00,,,0.01,Wunderground v.1.15,2013-04-01 21:30:00,
2013-04-01 16:40:00,42.0,18.2,30.29,NNE,13,5.0,5.0,38,0.00,,,0.01,Wunderground v.1.15,2013-04-01 21:40:00,
2013-04-01 16:50:00,41.9,18.7,30.29,NNW,345,6.0,7.0,39,0.00,,,0.01,Wunderground v.1.15,2013-04-01 21:50:00,
2013-04-01 17:00:00,41.0,16.7,30.29,North,355,7.0,11.0,37,0.00,,,0.01,Wunderground v.1.15,2013-04-01 22:00:00,
2013-04-01 17:05:00,41.0,17.9,30.29,NNW,333,7.0,11.0,39,0.00,,,0.01,Wunderground v.1.15,2013-04-01 22:05:00,
2013-04-01 17:10:00,41.2,18.1,30.29,NW,308,6.0,6.0,39,0.00,,,0.01,Wunderground v.1.15,2013-04-01 22:10:00,
2013-04-01 17:20:00,41.0,16.0,30.29,North,11,6.0,12.0,36,0.00,,,0.01,Wunderground v.1.15,2013-04-01 22:20:00,
2013-04-01 17:25:00,40.7,17.6,30.29,North,360,6.0,12.0,39,0.00,,,0.01,Wunderground v.1.15,2013-04-01 22:25:00,
2013-04-01 17:35:00,41.2,17.5,30.29,NE,45,4.0,5.0,38,0.00,,,0.01,Wunderground v.1.15,2013-04-01 22:35:00,
2013-04-01 17:40:00,40.8,17.1,30.29,NNE,20,5.0,8.0,38,0.00,,,0.01,Wunderground v.1.15,2013-04-01 22:40:00,
2013-04-01 17:50:00,40.4,18.0,30.29,NNW,327,4.0,4.0,40,0.00,,,0.01,Wunderground v.1.15,2013-04-01 22:50:00,
2013-04-01 17:55:00,40.0,17.0,30.29,NNE,25,4.0,10.0,39,0.00,,,0.01,Wunderground v.1.15,2013-04-01 22:55:00,
2013-04-01 18:05:00,39.7,17.3,30.29,NW,326,6.0,6.0,40,0.00,,,0.01,Wunderground v.1.15,2013-04-01 23:05:00,
2013-04-01 18:15:00,39.2,16.9,30.29,NW,313,5.0,7.0,40,0.00,,,0.01,Wunderground v.1.15,2013-04-01 23:15:00,
2013-04-01 18:25:00,39.2,17.4,30.29,North,355,4.0,5.0,41,0.00,,,0.01,Wunderground v.1.15,2013-04-01 23:25:00,
2013-04-01 18:35:00,39.1,17.4,30.29,North,355,5.0,8.0,41,0.00,,,0.01,Wunderground v.1.15,2013-04-01 23:35:00,
2013-04-01 18:45:00,38.8,17.1,30.29,North,5,5.0,6.0,41,0.00,,,0.01,Wunderground v.1.15,2013-04-01 23:45:00,
2013-04-01 18:55:00,38.7,17.0,30.29,NNW,329,5.0,8.0,41,0.00,,,0.01,Wunderground v.1.15,2013-04-01 23:55:00,
2013-04-01 19:05:00,38.4,16.7,30.29,North,11,5.0,6.0,41,0.00,,,0.01,Wunderground v.1.15,2013-04-02 00:05:00,
2013-04-01 19:15:00,37.8,15.6,30.29,North,10,5.0,5.0,40,0.00,,,0.01,Wunderground v.1.15,2013-04-02 00:15:00,
2013-04-01 19:20:00,37.4,16.4,30.29,NNE,15,5.0,5.0,42,0.00,,,0.01,Wunderground v.1.15,2013-04-02 00:20:00,
2013-04-01 19:30:00,37.0,16.5,30.29,NNE,28,4.0,6.0,43,0.00,,,0.01,Wunderground v.1.15,2013-04-02 00:30:00,
2013-04-01 19:40:00,36.4,16.5,30.28,NNW,329,5.0,8.0,44,0.00,,,0.01,Wunderground v.1.15,2013-04-02 00:40:00,
2013-04-01 19:50:00,35.8,16.0,30.29,NNW,334,5.0,6.0,44,0.00,,,0.01,Wunderground v.1.15,2013-04-02 00:50:00,
2013-04-01 20:00:00,35.5,16.2,30.29,North,355,4.0,4.0,45,0.00,,,0.01,Wunderground v.1.15,2013-04-02 01:00:00,
2013-04-01 20:05:00,35.2,17.9,30.29,North,5,3.0,5.0,49,0.00,,,0.01,Wunderground v.1.15,2013-04-02 01:05:00,
2013-04-01 20:15:00,34.8,16.6,30.29,North,5,3.0,3.0,47,0.00,,,0.01,Wunderground v.1.15,2013-04-02 01:15:00,
2013-04-01 20:25:00,34.4,16.7,30.29,NNW,337,2.0,6.0,48,0.00,,,0.01,Wunderground v.1.15,2013-04-02 01:25:00,
2013-04-01 20:35:00,34.2,16.5,30.30,NNW,342,3.0,3.0,48,0.00,,,0.01,Wunderground v.1.15,2013-04-02 01:35:00,
2013-04-01 20:40:00,34.1,16.9,30.30,NNW,346,2.0,3.0,49,0.00,,,0.01,Wunderground v.1.15,2013-04-02 01:40:00,
2013-04-01 20:50:00,33.7,16.5,30.31,North,360,3.0,3.0,49,0.00,,,0.01,Wunderground v.1.15,2013-04-02 01:50:00,
2013-04-01 21:00:00,33.4,16.7,30.31,NNW,348,3.0,6.0,50,0.00,,,0.01,Wunderground v.1.15,2013-04-02 02:00:00,
2013-04-01 21:05:00,33.3,17.1,30.32,North,360,3.0,6.0,51,0.00,,,0.01,Wunderground v.1.15,2013-04-02 02:05:00,
2013-04-01 21:15:00,33.0,16.8,30.32,North,360,2.0,4.0,51,0.00,,,0.01,Wunderground v.1.15,2013-04-02 02:15:00,
2013-04-01 21:20:00,33.0,16.8,30.32,North,360,2.0,3.0,51,0.00,,,0.01,Wunderground v.1.15,2013-04-02 02:20:00,
2013-04-01 21:30:00,32.7,16.5,30.33,North,360,1.0,1.0,51,0.00,,,0.01,Wunderground v.1.15,2013-04-02 02:30:00,
2013-04-01 21:40:00,32.5,16.8,30.33,North,360,1.0,1.0,52,0.00,,,0.01,Wunderground v.1.15,2013-04-02 02:40:00,
2013-04-01 21:45:00,32.4,16.7,30.33,North,360,1.0,1.0,52,0.00,,,0.01,Wunderground v.1.15,2013-04-02 02:45:00,
2013-04-01 21:55:00,32.1,16.4,30.33,North,360,1.0,1.0,52,0.00,,,0.01,Wunderground v.1.15,2013-04-02 02:55:00,
2013-04-01 22:05:00,31.7,16.5,30.32,North,360,2.0,3.0,53,0.00,,,0.01,Wunderground v.1.15,2013-04-02 03:05:00,
2013-04-01 22:15:00,31.3,16.1,30.33,North,360,1.0,2.0,53,0.00,,,0.01,Wunderground v.1.15,2013-04-02 03:15:00,
2013-04-01 22:20:00,31.1,16.4,30.33,North,360,1.0,1.0,54,0.00,,,0.01,Wunderground v.1.15,2013-04-02 03:20:00,
2013-04-01 22:30:00,30.8,16.5,30.33,North,360,1.0,2.0,55,0.00,,,0.01,Wunderground v.1.15,2013-04-02 03:30:00,
2013-04-01 22:40:00,30.4,16.6,30.33,North,360,2.0,2.0,56,0.00,,,0.01,Wunderground v.1.15,2013-04-02 03:40:00,
2013-04-01 22:50:00,30.1,16.7,30.33,North,360,1.0,1.0,57,0.00,,,0.01,Wunderground v.1.15,2013-04-02 03:50:00,
2013-04-01 23:00:00,29.8,16.4,30.34,North,360,0.0,0.0,57,0.00,,,0.01,Wunderground v.1.15,2013-04-02 04:00:00,
2013-04-01 23:05:00,29.7,16.3,30.34,North,360,0.0,1.0,57,0.00,,,0.01,Wunderground v.1.15,2013-04-02 04:05:00,
2013-04-01 23:10:00,29.5,16.5,30.34,North,360,1.0,1.0,58,0.00,,,0.01,Wunderground v.1.15,2013-04-02 04:10:00,
2013-04-01 23:20:00,29.2,16.6,30.34,North,360,0.0,1.0,59,0.00,,,0.01,Wunderground v.1.15,2013-04-02 04:20:00,
2013-04-01 23:25:00,29.1,16.9,30.34,North,360,0.0,1.0,60,0.00,,,0.01,Wunderground v.1.15,2013-04-02 04:25:00,
2013-04-01 23:30:00,28.9,16.7,30.33,North,360,0.0,0.0,60,0.00,,,0.01,Wunderground v.1.15,2013-04-02 04:30:00,
2013-04-01 23:35:00,28.8,16.6,30.33,North,360,0.0,0.0,60,0.00,,,0.01,Wunderground v.1.15,2013-04-02 04:35:00,
2013-04-01 23:45:00,28.5,16.7,30.33,North,360,0.0,0.0,61,0.00,,,0.01,Wunderground v.1.15,2013-04-02 04:45:00,
2013-04-01 23:55:00,28.4,17.4,30.33,North,360,0.0,2.0,63,0.00,,,0.01,Wunderground v.1.15,2013-04-02 04:55:00,